Weather in Saltyki

Russia / Ryazan Oblast     53°34′49″N   39°55′24″E
temp.,
°C
wind,
m/s
gust,
m/s
humid.,
%
clouds,
%
prec.,
mm/h
press.,
hPa
HPBL,
m
31 july, sat
sat3100:00+19w37930 0.0 1006152
03:00+17w37960 0.0 1006168
06:00+18w38890 0.0 1007221
09:00+24wnw475898 0.0 1008751
12:00+28wnw573683 0.0 10082575
15:00+30w572932 0.0 10072814
18:00+28w583518 0.0 1008873
21:00+22wsw33555 0.0 101035
1 august, sun
sun100:00+20wnw3466100 0.0 101146
03:00+18w227198 0.0 101211
06:00+19sw22715 0.0 101332
09:00+25sw23425 0.0 1013552
12:00+29sw343136 0.0 10131722
15:00+32ssw352555 0.0 10122728
18:00+31sse243494 0.0 1010175
21:00+26sse474010 0.0 1011132
2 august, mon
mon200:00+23ssw334683 0.0 101132
03:00+22ssw36492 0.0 101181
06:00+21s4106637 0.1 1012227
09:00+28s58455 0.1 1011566
12:00+33ssw693218 0.0 10092269
15:00+30ssw364298 0.2 1007285
18:00+25se475944 0.8 1006126
21:00+25sse4105063 0.8 1005142
3 august, tue
tue300:00+23ssw4953100 0.1 1005163
03:00+20ssw3686100 0.7 1005121
06:00+20ssw61087100 0.0 1006355
09:00+23sw7965100 0.0 1007763
12:00+27wsw81144100 0.0 10071689
15:00+26w7944100 0.0 10082020
18:00+23wnw675250 0.0 10091438
21:00+18nw36700 0.0 1012141
4 august, wed
wed400:00+16wnw22765 0.0 101225
03:00+15w33822 0.0 101339
06:00+16w25790 0.0 1014165
09:00+22wnw34470 0.0 1015884
12:00+26wnw463312 0.0 10152558
15:00+27nw663175 0.0 10142522
18:00+24nnw564173 0.0 1015999
21:00+18nnw236146 0.0 101734